Home > Weather > Durrës > Past weeks

Flag for Albania Past Weather in Durrës, Albania — Yesterday and Last 2 Weeks

Now
77 °F

Thunderstorms. Mostly cloudy.


Feels Like: 78 °F
Forecast: 75 / 83 °F
Wind: 8 mph from South

Location: Tirana Airport

Current Time: Jul 25, 2016 at 8:18:21 AM

Latest Report: Jul 25, 2016 at 7:50 AM


Visibility: 3 mi

Pressure: 29.92 "Hg

Humidity: 83%

Dew Point: 72 °F

Location of DurrësLocation

Past Weather in Durrës — Graph

°F

Durrës Temperature Yesterday

Maximum temperature yesterday: 95 °F (at 1:50 PM)
Minimum temperature yesterday: 68 °F (at 4:20 AM)
Average temperature yesterday: 81 °F

High & Low Weather Summary for the Past Weeks

 TemperatureHumidityPressure
High95 °F (Jul 10, 2:20 PM)94% (Jul 16, 3:50 AM)30.01 "Hg (Jul 16, 3:50 AM)
Low61 °F (Jul 16, 3:50 AM)25% (Jul 20, 11:50 AM)29.68 "Hg (Jul 15, 1:50 PM)
Average78 °F61%29.91 "Hg
* Reported Jul 10 6:20 AM — Jul 25 6:50 AM, Durrës, Weather by CustomWeather, © 2016

Note: Actual official high and low records may vary slightly from our data, if they occured in-between our weather recording intervals... More about our weather records

Advertising

Durrës Weather History for the Previous 24 Hours

Scroll right to see more
 ConditionsComfort  
Time TempWeatherWind HumidityBarometerVisibility
6:50 AM
Mon, Jul 25
77 °FPartly sunny.3 mph74%29.89 "HgN/A
6:20 AM77 °FPartly cloudy.6 mph74%29.89 "HgN/A
5:50 AM75 °FPartly cloudy.7 mph78%29.89 "HgN/A
5:20 AM75 °FPartly cloudy.5 mph83%29.89 "HgN/A
4:50 AM75 °FPassing clouds.5 mph89%29.86 "HgN/A
4:20 AM75 °FPartly cloudy.3 mph89%29.89 "HgN/A
3:50 AM77 °FPartly cloudy.5 mph83%29.89 "HgN/A
3:20 AM77 °FPartly cloudy.3 mph83%29.89 "HgN/A
2:50 AM77 °FPartly cloudy.5 mph89%29.92 "HgN/A
2:20 AM77 °FPassing clouds.5 mph89%29.89 "HgN/A
1:50 AM77 °FPassing clouds.3 mph89%29.89 "HgN/A
1:20 AM79 °FPassing clouds.5 mph84%29.92 "HgN/A
12:50 AM77 °FPartly cloudy.2 mph83%29.95 "HgN/A
12:20 AM79 °FPartly cloudy.7 mph79%29.92 "HgN/A
11:50 PM
Sun, Jul 24
77 °FPassing clouds.3 mph89%29.89 "HgN/A
11:20 PM77 °FPassing clouds.2 mph83%29.89 "HgN/A
10:50 PM77 °FPassing clouds.No wind83%29.89 "HgN/A
10:20 PM77 °FPassing clouds.No wind79%29.92 "HgN/A
9:50 PM77 °FClear.2 mph79%29.92 "Hg10 mi
9:20 PM79 °FClear.2 mph79%29.92 "Hg10 mi
8:50 PM77 °FSunny.2 mph79%29.89 "Hg10 mi
8:20 PM79 °FSunny.3 mph74%29.89 "Hg10 mi
7:50 PM79 °FSunny.6 mph70%29.89 "Hg10 mi
7:20 PM81 °FSunny.6 mph62%29.89 "Hg10 mi
6:50 PM82 °FSunny.7 mph62%29.89 "Hg10 mi
6:20 PM86 °FPassing clouds.9 mph55%29.89 "HgN/A
5:50 PM88 °FPassing clouds.7 mph52%29.89 "HgN/A
5:20 PM88 °FScattered clouds.9 mph49%29.89 "HgN/A
4:50 PM90 °FScattered clouds.10 mph49%29.89 "HgN/A
4:20 PM93 °FScattered clouds.12 mph49%29.89 "HgN/A
3:50 PM91 °FPassing clouds.10 mph52%29.89 "HgN/A
3:20 PM93 °FPassing clouds.10 mph53%29.89 "HgN/A
2:50 PM93 °FPassing clouds.8 mph44%29.89 "HgN/A
2:20 PM95 °FPassing clouds.9 mph44%29.92 "HgN/A
1:50 PM95 °FPassing clouds.8 mph44%29.92 "HgN/A
1:20 PM93 °FPassing clouds.7 mph44%29.92 "HgN/A
12:50 PM93 °FPassing clouds.6 mph44%29.92 "HgN/A
12:20 PM90 °FPassing clouds.3 mph49%29.92 "HgN/A
11:50 AM90 °FPassing clouds.5 mph49%29.92 "HgN/A
11:20 AM90 °FPassing clouds.3 mph46%29.95 "HgN/A
10:50 AM88 °FSunny.1 mph43%29.95 "Hg10 mi
10:20 AM90 °FSunny.2 mph46%29.95 "Hg10 mi
9:50 AM86 °FSunny.2 mph46%29.95 "Hg10 mi
9:20 AM84 °FSunny.2 mph55%29.95 "Hg10 mi
8:50 AM81 °FSunny.2 mph54%29.95 "Hg10 mi
8:20 AM79 °FSunny.2 mph54%29.95 "Hg10 mi
Weather by CustomWeather, © 2016

See weather overviewHow to use our weather pages